Regional Weather Roundup
Issued by NWS

Home | Current Version | Previous Version | Graphics & Text | Print | Product List | Glossary On
Versions: 1 2 3 4 5 6 7 8 9 10 11 12 13 14 15 16 17 18 19 20 21 22 23 24 25 26 27 28 29 30 31 32 33 34 35 36 37 38 39 40 41 42 43 44 45 46 47 48 49 50
000
ASUS43 KMPX 300510
RWRMN
WEATHER ROUNDUP FOR MINNESOTA
NATIONAL WEATHER SERVICE TWIN CITIES/CHANHASSEN MN
1200 AM CDT TUE SEP 30 2014


NOTE: "FAIR" INDICATES FEW OR NO CLOUDS BELOW 12,000 FEET WITH NO
SIGNIFICANT WEATHER AND/OR OBSTRUCTIONS TO VISIBILITY. N/A MEANS
CURRENT SKY AND/OR WEATHER CONDITIONS ARE NOT AVAILABLE.

MNZ060>063-068>070-300600-
   Twin Cities Metro

CITY           SKY/WX    TMP DP  RH WIND       PRES   REMARKS
TWIN CITIES    CLEAR     45  40  82 NE12      30.10F
ST PAUL        CLEAR     45  41  86 E6        30.12S
CRYSTAL        PTCLDY    45  40  82 NE6       30.10S
BLAINE         CLEAR     45  43  93 NE6       30.11S
LAKEVILLE      CLEAR     43  41  93 NE7       30.09S
EDEN PRAIRIE   CLEAR     46  42  86 NE10      30.08F
SOUTH ST PAUL  CLEAR     46  40  80 NE5       30.11S
LAKE ELMO      FAIR      43  41  93 E10       30.12S
$$
MNZ001>005-007-008-013>017-022>024-027-028-300600-
   Northwest Minnesota

CITY           SKY/WX    TMP DP  RH WIND       PRES   REMARKS
BEMIDJI        CLOUDY    46  43  87 SE7       30.11F
HALLOCK        CLEAR     45  43  93 E7        30.07S
ROSEAU         CLEAR     43  37  81 SE9       30.11S
WARROAD        CLEAR     43  37  81 SE9       30.13S
THIEF RVR FALL CLEAR     45  43  93 E9        30.08F
CROOKSTON      CLEAR     46  45  93 SE8       30.08S
FOSSTON        CLEAR     43  39  87 SE9       30.09S
DETROIT LAKES  CLOUDY    48  43  81 SE13      30.09S
PARK RAPIDS    CLEAR     46  42  86 SE5       30.10S
MAHNOMEN       FAIR      45  42  89 SE9       30.08F
$$
MNZ006-009>011-018-025>026-300600-
   North Central Minnesota

CITY           SKY/WX    TMP DP  RH WIND       PRES   REMARKS
BAUDETTE       CLOUDY    43  40  89 SE9       30.13F
FLAG ISLAND    CLOUDY    46  43  87 SE13      30.12S
INTL FALLS     CLOUDY    42  39  89 SE8       30.16F
WASKISH        CLEAR     39  37  93 CALM      30.13F
BIG FORK       CLOUDY    45  39  81 E5        30.14F
LONGVILLE      CLOUDY    45  41  87 E5        30.13S
GRAND RAPIDS   CLOUDY    45  37  76 SE6       30.15F
CRANE LAKE     CLOUDY    41  37  87 CALM      30.19F
ORR            CLOUDY    43  37  81 CALM      30.15S
COOK           CLOUDY    43  39  87 E5        30.17F
WALKER         CLOUDY    47  41  81 SE5       30.11F
$$
MNZ012-019>021-037-300600-
   Northeast Minnesota

CITY           SKY/WX    TMP DP  RH WIND       PRES   REMARKS
DULUTH         CLOUDY    44  39  82 E14       30.16F
ELY            CLOUDY    43  37  81 SE6       30.18S
HIBBING        CLOUDY    45  40  82 SE10      30.16F
EVELETH        CLOUDY    43  39  87 SE8       30.17S
DULUTH HARBOR  CLOUDY    46  43  87 E16       30.19S
TWO HARBORS    CLOUDY    43  37  81 E12       30.16F
SILVER BAY     MOCLDY    43  43 100 E5        30.17F
GRAND MARAIS     N/A     42  35  76 NE5       30.22S
G MARAIS ARPRT CLOUDY    36  32  87 CALM      30.19S
$$
MNZ029>031-032-039>041-046>048-054>057-064-300600-
   West Central Minnesota

CITY           SKY/WX    TMP DP  RH WIND       PRES   REMARKS
FERGUS FALLS   CLEAR     48  41  76 SE12      30.08R
WHEATON        CLEAR     45  43  93 E7        30.08S
MORRIS         CLEAR     46  43  87 E10       30.07S
ALEXANDRIA     MOCLDY    45  42  89 E14G20    30.10S
ELBOW LAKE     MOCLDY    46  44  90 SE10      30.07S
WADENA         CLEAR     43  39  87 E7        30.09F
GLENWOOD       CLEAR     43  39  87 E8        30.09S
APPLETON       CLEAR     48  45  87 E8        30.06S
BENSON         CLEAR     45  43  93 SE6       30.08S
ORTONVILLE     PTCLDY    48  45  87 E9        30.05F
MADISON        PTCLDY    52  46  82 E7        30.05F
WILLMAR        FAIR      46  43  87 E9        30.10R
$$
MNZ033>034-036-042>043-049>051-058-059-300600-
   Central Minnesota

CITY           SKY/WX    TMP DP  RH WIND       PRES   REMARKS
ST CLOUD       CLOUDY    45  40  82 E6G17     30.11F
SAUK CENTRE    FAIR      41  39  91 E8        30.10S
PAYNESVILLE    PTCLDY    41  39  95 NE7       30.10S
AITKIN         CLOUDY    45  37  76 E8        30.13F
PINE RIVER     CLOUDY    45  41  87 E12       30.16S
BRAINERD       CLOUDY    42  39  89 E5        30.13F
STAPLES        CLOUDY    43  41  93 E7        30.11S
LONG PRAIRIE   MOCLDY    41  37  87 NE7       30.10F
LITTLE FALLS   CLOUDY    41  37  87 E5        30.12S
LITCHFIELD     CLEAR     45  45 100 E9        30.10S
BUFFALO        CLEAR     43  39  86 NE8       30.12S
MAPLE LAKE     CLEAR     44  42  93 NE7       30.11S
$$
MNZ037-044-045-052-053-300600-
   East Central Minnesota

CITY           SKY/WX    TMP DP  RH WIND       PRES   REMARKS
PRINCETON      CLOUDY    45  39  81 NE8       30.12F
MORA           CLOUDY    41  36  81 NE6       30.16S
CAMBRIDGE      CLOUDY    46  37  71 E7        30.11F
RUSH CITY      CLOUDY    43  39  86 NE3       30.14S
MOOSE LAKE     CLOUDY    43  36  75 E8        30.15S
HINCKLEY       CLOUDY    43  37  81 NE7       30.15S
CLOQUET        CLOUDY    43  39  87 E10G16    30.16S
MCGREGOR       CLOUDY    43  37  81 E7G16     30.15F
$$
MNZ071>073-080-081-089-090-097-098-300600-
   Southwest Minnesota

CITY           SKY/WX    TMP DP  RH WIND       PRES   REMARKS
MONTEVIDEO     PTCLDY    46  46 100 SE8       30.08R
GRANITE FALLS  CLEAR     49  45  87 E8        30.08R
CANBY          PTCLDY    48  46  93 E6        30.06S
MARSHALL       PTCLDY    50  45  81 SE10      30.04S
REDWOOD FALLS  CLEAR     49  46  90 E9        30.07S
OLIVIA         CLEAR     50  45  81 E7        30.07S
PIPESTONE      CLEAR     52  46  82 E13       30.02S
WINDOM         CLEAR     50  46  87 E7        30.05S
WORTHINGTON    CLEAR     50  46  87 E9        30.05R
JACKSON        CLEAR     50  46  87 E7        30.06R
TRACY          CLEAR     50  47  91 E6        30.05S
SLAYTON        MOCLDY    49  48  94 CALM      30.05S
$$
MNZ065>067-074>077-082>085-091>093-300600-
   South Central Minnesota

CITY           SKY/WX    TMP DP  RH WIND       PRES   REMARKS
MANKATO        CLEAR     48  41  76 E9        30.07S
NEW ULM        CLEAR     48  46  93 E7        30.07S
ST JAMES       CLEAR     50  46  87 NE6       30.07R
FAIRMONT       CLEAR     50  45  81 E5        30.05S
GLENCOE        CLEAR     45  41  86 CALM      30.09R
FARIBAULT      CLEAR     48  41  76 NE3       30.09R
OWATONNA       CLEAR     46  43  87 E5        30.08S
WASECA         CLEAR     45  39  81 NE7       30.09S
ALBERT LEA     CLEAR     50  46  87 NE8       30.06S
$$
MNZ078>079-086>088-094>096-300600-
   Southeast Minnesota

CITY           SKY/WX    TMP DP  RH WIND       PRES   REMARKS
ROCHESTER      CLEAR     46  43  89 NE6       30.08S
RED WING       CLEAR     45  39  81 E7        30.09S
STANTON        CLEAR     45  42  89 CALM      30.08S
DODGE CENTER   CLEAR     46  43  87 E8        30.08R
WINONA         CLEAR     48  45  87 E5        30.10R
AUSTIN         CLEAR     48  45  87 NE3       30.06S
PRESTON        CLEAR     46  44  91 NE7       30.07S
$$
ABBREVIATIONS USED IN REMARKS
   TC - TEMPERATURES IN CELSIUS
  WCI - WIND CHILL INDEX
   HX - HEAT INDEX
  VSB - VISIBILITY
$$


USA.gov is the U.S. government's official web portal to all federal, state and local government web resources and services.